Fort Campbell, KY

3:06 PM CDT on July 24, 2017 (GMT -0500)
Campbell Army Air Field

Weather History for KHOP - March, 2012

Change the Weather History Date:

Tuesday, March 6, 2012

  Actual Average Record
Temperature  
Mean Temperature 53 °F -  
Max Temperature 71 °F 52 °F 71 °F (2012)
Min Temperature 35 °F 32 °F 0 °F (2015)
Degree Days  
Heating Degree Days 12    
Growing Degree Days 3 (Base 50)    
Moisture  
Dew Point 21 °F    
Average Humidity 32    
Maximum Humidity 57    
Minimum Humidity 12    
Precipitation  
Precipitation 0.00 in - - ()
Sea Level Pressure  
Sea Level Pressure 30.32 in    
Wind  
Wind Speed 11 mph (SSE)    
Max Wind Speed 18 mph    
Max Gust Speed 29 mph    
Visibility 10 miles    
Events      
Averages and records for this station are not official NWS values.
T = Trace of Precipitation, MM = Missing Value Source: NWS Daily Summary

Daily Weather History Graph

Daily Weather History Graph

Search for Another Location

Airport or City:

Trip Planner

Search our weather history database for the weather conditions in past years. The results will help you decide how hot, cold, wet, or windy it might be!

Date:

Astronomy

Mar. 06, 2012 Rise Set
Actual Time 6:13 AM CST 5:49 PM CST
Civil Twilight 5:47 AM CST 6:15 PM CST
Nautical Twilight 5:17 AM CST 6:45 PM CST
Astronomical Twilight 4:47 AM CST 7:15 PM CST
Moon 4:17 PM CST (3/6) 4:46 AM CST (3/6)
Length of Visible Light 12h 28m
Length of Day
11h 36m
Waxing Gibbous, 96% of the Moon is Illuminated
Mar 6
Waxing Gibbous
Mar 8
Full
Mar 14
Last Quarter
Mar 22
New
Mar 30
First Quarter

Hourly Weather History & Observations

Time (CST) Temp. Windchill Dew Point Humidity Pressure Visibility Wind Dir Wind Speed Gust Speed Precip Events Conditions
12:55 AM 37.0 °F 30.4 °F 22.5 °F 56% 30.41 in 10.0 mi SE 9.2 mph - N/A   Clear
1:55 AM 36.0 °F 30.3 °F 22.1 °F 57% 30.40 in 10.0 mi SE 6.9 mph - N/A   Clear
2:55 AM 36.5 °F 29.2 °F 21.0 °F 54% 30.38 in 10.0 mi SE 10.4 mph - N/A   Clear
3:55 AM 37.0 °F 31.6 °F 20.8 °F 52% 30.37 in 10.0 mi SSE 6.9 mph - N/A   Clear
4:55 AM 35.8 °F 30.1 °F 21.2 °F 55% 30.38 in 10.0 mi SE 6.9 mph - N/A   Clear
5:55 AM 36.0 °F 31.1 °F 21.6 °F 56% 30.38 in 10.0 mi SE 5.8 mph - N/A   Clear
6:55 AM 38.1 °F 32.9 °F 22.1 °F 53% 30.38 in 10.0 mi SSE 6.9 mph - N/A   Clear
7:55 AM 43.9 °F 38.3 °F 22.8 °F 43% 30.38 in 10.0 mi SSE 10.4 mph - N/A   Clear
8:55 AM 50.9 °F - 23.0 °F 34% 30.38 in 10.0 mi South 8.1 mph - N/A   Clear
9:55 AM 59.9 °F - 21.9 °F 23% 30.37 in 10.0 mi South 15.0 mph 18.4 mph N/A   Clear
10:55 AM 63.9 °F - 21.0 °F 19% 30.35 in 10.0 mi SSW 13.8 mph 24.2 mph N/A   Clear
11:55 AM 66.7 °F - 23.0 °F 19% 30.33 in 10.0 mi SSW 16.1 mph 23.0 mph N/A   Clear
12:55 PM 69.4 °F - 22.5 °F 17% 30.30 in 10.0 mi South 17.3 mph 25.3 mph N/A   Clear
1:55 PM 71.4 °F - 23.4 °F 16% 30.26 in 10.0 mi SSW 18.4 mph 24.2 mph N/A   Clear
2:55 PM 70.5 °F - 21.4 °F 16% 30.25 in 10.0 mi SSE 17.3 mph 23.0 mph N/A   Clear
3:55 PM 69.4 °F - 13.8 °F 12% 30.24 in 10.0 mi South 15.0 mph 28.8 mph N/A   Clear
4:55 PM 66.7 °F - 16.2 °F 14% 30.24 in 10.0 mi South 13.8 mph - N/A   Clear
5:55 PM 64.4 °F - 17.8 °F 17% 30.26 in 10.0 mi South 11.5 mph - N/A   Clear
6:55 PM 61.7 °F - 19.4 °F 20% 30.26 in 10.0 mi South 11.5 mph - N/A   Clear
7:55 PM 60.6 °F - 21.2 °F 22% 30.28 in 10.0 mi South 9.2 mph - N/A   Clear
8:55 PM 58.8 °F - 22.5 °F 25% 30.30 in 10.0 mi South 12.7 mph - N/A   Clear
9:55 PM 57.4 °F - 23.9 °F 28% 30.30 in 10.0 mi South 12.7 mph - N/A   Clear
10:55 PM 57.0 °F - 24.4 °F 29% 30.30 in 10.0 mi South 10.4 mph - N/A   Clear
11:55 PM 57.2 °F - 24.6 °F 29% 30.29 in 10.0 mi South 15.0 mph 21.9 mph N/A   Clear